Location: �clusier
(49.9361°N, 2.7869°E)
Time: 22:58:52
(UTC+00:00)

Cosmos 1844 Rocket - Pass Details

Date: 16 June 2021
Orbit: 823 x 846 km, 71.0° (Epoch: 02 August)

Event Time Altitude Azimuth Distance (km) Brightness Sun altitude
Rises 22:17:44 0° 324° (NW) 3,412 7.5 -13.9°
Reaches altitude 10° 22:20:25 10° 315° (NW) 2,474 6.2 -14.1°
Maximum altitude 22:25:21 32° 255° (WSW) 1,431 3.9 -14.3°
Enters shadow 22:29:27 14° 199° (SSW) 2,203 4.4 -14.6°
